Simultaneous Nadir Overpasses (SNOs) Predictions

Prediction of SNOs between METOP-A and NPP Satellite Orbit:

Table of predicted SNOs for the next 14.0 days since TLE Epoch: 5/25/2019
Index Date (METOP-A) Time (METOP-A) Lat,Lon (METOP-A) SZA (METOP-A ) Date (NPP) Time (NPP) Lat,Lon (NPP) SZA (NPP ) Distance(km) Time Diff (sec)
1 05/29/2019 05:50:41 -74.83, -97.53 126.61 05/29/2019 05:49:34 -74.86,-100.54 126.39 87.54 67
2 05/29/2019 06:41:25 74.63, 69.25 53.22 05/29/2019 06:40:15 74.63, 67.39 53.35 54.94 70
3 05/29/2019 07:32:09 -74.52,-123.70 126.88 05/29/2019 07:30:57 -74.52,-125.01 126.79 38.90 72
4 05/29/2019 08:22:53 74.32, 43.11 52.94 05/29/2019 08:21:39 74.34, 42.78 53.01 10.33 74
5 05/29/2019 09:13:35 -74.26,-149.71 127.11 05/29/2019 09:12:21 -74.28,-149.76 127.07 3.11 74
6 05/29/2019 10:04:15 74.25, 17.60 52.87 05/29/2019 10:03:06 74.25, 17.65 52.89 1.47 69
7 05/29/2019 10:54:57 -74.24,-175.09 127.14 05/29/2019 10:53:50 -74.24,-175.01 127.13 2.38 67
8 05/29/2019 11:45:37 74.23, -7.79 52.85 05/29/2019 11:44:36 74.25, -7.74 52.88 2.78 61
9 05/29/2019 12:36:19 -74.22, 159.52 127.17 05/29/2019 12:35:20 -74.24, 159.60 127.14 3.18 59
10 05/29/2019 13:26:58 74.26, -33.05 52.86 05/29/2019 13:26:06 74.25, -33.12 52.87 2.21 52
11 05/29/2019 14:17:40 -74.26, 134.26 127.15 05/29/2019 14:16:50 -74.25, 134.22 127.15 1.58 50
12 05/29/2019 15:08:20 74.24, -58.44 52.84 05/29/2019 15:07:36 74.26, -58.50 52.87 2.51 44
13 05/29/2019 15:59:02 -74.24, 108.87 127.18 05/29/2019 15:58:20 -74.25, 108.84 127.15 1.67 42
14 05/29/2019 16:49:42 74.23, -83.82 52.81 05/29/2019 16:49:05 74.21, -83.76 52.81 2.42 37
15 05/29/2019 17:40:24 -74.22, 83.49 127.20 05/29/2019 17:39:49 -74.20, 83.58 127.21 3.30 35
16 05/29/2019 18:31:04 74.21,-109.21 52.79 05/29/2019 18:30:35 74.22,-109.14 52.80 2.20 29
17 05/29/2019 19:21:46 -74.20, 58.10 127.23 05/29/2019 19:21:19 -74.21, 58.20 127.22 2.94 27
18 05/29/2019 20:12:25 74.24,-134.47 52.80 05/29/2019 20:12:05 74.22,-134.52 52.79 2.73 20
19 05/29/2019 21:03:07 -74.23, 32.84 127.21 05/29/2019 21:02:49 -74.21, 32.81 127.23 2.60 18
20 05/29/2019 21:53:47 74.22,-159.86 52.78 05/29/2019 21:53:35 74.22,-159.91 52.78 1.52 12
21 05/29/2019 22:44:29 -74.21, 7.45 127.24 05/29/2019 22:44:19 -74.21, 7.43 127.24 0.64 10
22 05/29/2019 23:35:09 74.20, 174.76 52.75 05/29/2019 23:35:05 74.23, 174.71 52.78 2.93 4
23 05/30/2019 00:25:51 -74.20, -17.93 127.26 05/30/2019 00:25:49 -74.22, -17.95 127.24 2.30 2
24 05/30/2019 01:16:31 74.18, 149.37 52.73 05/30/2019 01:16:34 74.18, 149.45 52.72 2.49 3
25 05/30/2019 02:07:13 -74.18, -43.32 127.29 05/30/2019 02:07:18 -74.17, -43.21 127.30 3.40 5
26 05/30/2019 02:57:53 74.17, 123.98 52.70 05/30/2019 02:58:04 74.18, 124.07 52.71 3.16 11
27 05/30/2019 03:48:35 -74.16, -68.71 127.31 05/30/2019 03:48:48 -74.17, -68.59 127.31 3.72 13
28 05/30/2019 04:39:14 74.20, 98.72 52.72 05/30/2019 04:39:34 74.19, 98.68 52.70 1.62 20
29 05/30/2019 05:29:56 -74.19, -93.97 127.30 05/30/2019 05:30:18 -74.18, -93.98 127.32 1.57 22
30 05/30/2019 06:20:36 74.18, 73.33 52.69 05/30/2019 06:21:04 74.19, 73.30 52.70 1.54 28
31 05/30/2019 07:11:18 -74.17,-119.35 127.32 05/30/2019 07:11:48 -74.18,-119.36 127.32 0.83 30
32 05/30/2019 08:01:58 74.16, 47.95 52.66 05/30/2019 08:02:33 74.14, 48.04 52.63 3.42 35
33 05/30/2019 08:52:40 -74.15,-144.74 127.35 05/30/2019 08:53:18 -74.18,-144.74 127.33 3.19 38
34 05/30/2019 09:43:20 74.14, 22.56 52.64 05/30/2019 09:44:03 74.15, 22.66 52.63 2.99 43
35 05/30/2019 10:34:01 -74.19,-170.00 127.33 05/30/2019 10:34:48 -74.19,-170.12 127.34 3.64 47
36 05/30/2019 11:24:41 74.17, -2.70 52.66 05/30/2019 11:25:33 74.15, -2.72 52.62 2.69 52
37 05/30/2019 12:15:23 -74.17, 164.61 127.36 05/30/2019 12:16:17 -74.14, 164.62 127.40 2.98 54
38 05/30/2019 13:06:03 74.16, -28.09 52.63 05/30/2019 13:07:03 74.15, -28.11 52.61 0.62 60
39 05/30/2019 13:56:45 -74.15, 139.22 127.38 05/30/2019 13:57:47 -74.14, 139.23 127.41 0.66 62
40 05/30/2019 14:47:25 74.14, -53.47 52.60 05/30/2019 14:48:33 74.16, -53.49 52.61 2.24 68
41 05/30/2019 15:38:07 -74.13, 113.84 127.41 05/30/2019 15:39:17 -74.15, 113.85 127.41 1.81 70
42 05/30/2019 16:28:48 74.07, -78.98 52.54 05/30/2019 16:30:02 74.11, -78.75 52.55 8.41 74
43 05/30/2019 17:19:32 -73.96, 88.10 127.56 05/30/2019 17:20:44 -74.00, 88.83 127.58 23.06 72
44 05/30/2019 18:10:16 73.75,-105.07 52.26 05/30/2019 18:11:25 73.77,-103.29 52.15 55.54 69
45 05/30/2019 19:01:00 -73.65, 62.01 127.83 05/30/2019 19:02:08 -73.71, 64.16 127.92 67.57 68




NCC Satellite Simultaneous Nadir Overpasses (SNOs) Prediction Service
